When you browse on this site, cookies collect data to enhance your experience and personalize the content and advertising you see.
Visit our Privacy Policy to learn more. By continuing to use the site, you agree to this use of cookies and data.

Hourly Weather Hlukhivtsi

Today, 5 July, Sunday

Time Temperature Precipitation Wind Pressure Humidity
00:00 +18°C° 0 mm 2 mps 737 mmHg 94%
01:00 +18°C° 0 mm 2 mps 737 mmHg 95%
02:00 +17°C° 0 mm 2 mps 737 mmHg 95%
03:00 +17°C° 0 mm 2 mps 737 mmHg 95%
04:00 +17°C° 0 mm 2 mps 737 mmHg 95%
05:00 +17°C° 0 mm 2 mps 737 mmHg 96%
06:00 +19°C° 0 mm 3 mps 737 mmHg 92%
07:00 +20°C° 0 mm 3 mps 738 mmHg 87%
08:00 +22°C° 0 mm 4 mps 738 mmHg 83%
09:00 +23°C° 0 mm 4 mps 738 mmHg 78%
10:00 +25°C° 0 mm 4 mps 738 mmHg 73%
11:00 +26°C° 0 mm 4 mps 738 mmHg 68%
12:00 +26°C° 0 mm 4 mps 738 mmHg 66%
13:00 +27°C° 0 mm 4 mps 738 mmHg 64%
14:00 +27°C° 0 mm 4 mps 738 mmHg 62%
15:00 +27°C° 0 mm 4 mps 738 mmHg 64%
16:00 +27°C° 0 mm 4 mps 737 mmHg 65%
17:00 +26°C° 0 mm 3 mps 737 mmHg 67%
18:00 +25°C° 0 mm 3 mps 737 mmHg 72%
19:00 +22°C° 0 mm 3 mps 737 mmHg 77%
20:00 +21°C° 0 mm 2 mps 737 mmHg 82%
21:00 +20°C° 0 mm 2 mps 737 mmHg 83%
22:00 +19°C° 0 mm 2 mps 737 mmHg 85%
23:00 +18°C° 0 mm 2 mps 737 mmHg 86%

Tomorrow, 6 July, Monday

Time Temperature Precipitation Wind Pressure Humidity
00:00 +18°C° 0 mm 2 mps 737 mmHg 88%
01:00 +17°C° 0 mm 2 mps 737 mmHg 89%
02:00 +17°C° 0 mm 2 mps 737 mmHg 90%
03:00 +18°C° 0 mm 1 mps 737 mmHg 91%
04:00 +18°C° 0 mm 1 mps 737 mmHg 91%
05:00 +18°C° 0 mm 1 mps 737 mmHg 91%
06:00 +20°C° 0 mm 1 mps 737 mmHg 85%
07:00 +21°C° 0 mm 1 mps 737 mmHg 80%
08:00 +23°C° 0 mm 1 mps 737 mmHg 74%
09:00 +25°C° 0 mm 1 mps 737 mmHg 69%
10:00 +24°C° 0 mm 0 mps 737 mmHg 64%
11:00 +25°C° 0 mm 0 mps 737 mmHg 59%
12:00 +26°C° 0 mm 0 mps 736 mmHg 56%
13:00 +26°C° 0 mm 0 mps 736 mmHg 53%
14:00 +27°C° 0 mm 0 mps 735 mmHg 50%
15:00 +27°C° 0 mm 0 mps 735 mmHg 50%
16:00 +27°C° 0 mm 0 mps 735 mmHg 50%
17:00 +27°C° 0 mm 0 mps 734 mmHg 50%
18:00 +27°C° 0 mm 1 mps 734 mmHg 57%
19:00 +25°C° 0 mm 1 mps 734 mmHg 63%
20:00 +23°C° 0 mm 1 mps 734 mmHg 70%
21:00 +23°C° 0 mm 1 mps 734 mmHg 73%
22:00 +22°C° 0 mm 1 mps 733 mmHg 76%
23:00 +21°C° 0 mm 1 mps 733 mmHg 79%

Day after tomorrow, 7 July, Tuesday

Time Temperature Precipitation Wind Pressure Humidity
00:00 +21°C° 0 mm 1 mps 733 mmHg 80%
01:00 +20°C° 0 mm 1 mps 733 mmHg 82%
02:00 +20°C° 0 mm 1 mps 732 mmHg 84%
03:00 +20°C° 0 mm 1 mps 732 mmHg 84%
04:00 +20°C° 0 mm 1 mps 732 mmHg 85%
05:00 +20°C° 0 mm 1 mps 732 mmHg 85%
06:00 +22°C° 0.1 mm 1 mps 732 mmHg 81%
07:00 +23°C° 0.1 mm 1 mps 733 mmHg 77%
08:00 +25°C° 0.1 mm 1 mps 733 mmHg 72%
09:00 +26°C° 0.5 mm 2 mps 733 mmHg 71%
10:00 +26°C° 0.5 mm 2 mps 733 mmHg 70%
11:00 +27°C° 0.5 mm 3 mps 733 mmHg 69%
12:00 +27°C° 1 mm 3 mps 733 mmHg 70%
13:00 +27°C° 1 mm 3 mps 733 mmHg 70%
14:00 +27°C° 1 mm 4 mps 732 mmHg 71%
15:00 +26°C° 1.3 mm 4 mps 732 mmHg 75%
16:00 +25°C° 1.3 mm 5 mps 732 mmHg 78%
17:00 +23°C° 1.3 mm 5 mps 733 mmHg 82%
18:00 +22°C° 0.5 mm 5 mps 733 mmHg 85%
19:00 +21°C° 0.5 mm 5 mps 733 mmHg 87%
20:00 +20°C° 0.5 mm 5 mps 733 mmHg 90%
21:00 +20°C° 0.6 mm 5 mps 734 mmHg 91%
22:00 +19°C° 0.6 mm 6 mps 734 mmHg 92%
23:00 +17°C° 0.6 mm 6 mps 734 mmHg 93%

8 July, Wednesday

Time Temperature Precipitation Wind Pressure Humidity
00:00 +17°C° 0.2 mm 6 mps 734 mmHg 92%
01:00 +16°C° 0.2 mm 6 mps 734 mmHg 91%
02:00 +15°C° 0.2 mm 6 mps 734 mmHg 90%
03:00 +15°C° 0 mm 6 mps 734 mmHg 88%
04:00 +15°C° 0 mm 5 mps 734 mmHg 86%
05:00 +14°C° 0 mm 5 mps 735 mmHg 84%
06:00 +15°C° 0 mm 5 mps 735 mmHg 83%
07:00 +15°C° 0 mm 5 mps 735 mmHg 83%
08:00 +15°C° 0 mm 5 mps 735 mmHg 83%
09:00 +16°C° 0 mm 5 mps 736 mmHg 81%
10:00 +17°C° 0 mm 5 mps 736 mmHg 78%
11:00 +19°C° 0 mm 5 mps 736 mmHg 76%
12:00 +20°C° 0 mm 5 mps 736 mmHg 74%
13:00 +21°C° 0 mm 5 mps 736 mmHg 72%
14:00 +22°C° 0 mm 5 mps 736 mmHg 70%
15:00 +22°C° 0 mm 5 mps 736 mmHg 69%
16:00 +22°C° 0 mm 5 mps 736 mmHg 69%
17:00 +22°C° 0 mm 4 mps 736 mmHg 69%
18:00 +21°C° 0 mm 4 mps 736 mmHg 75%
19:00 +20°C° 0 mm 3 mps 736 mmHg 80%
20:00 +18°C° 0 mm 3 mps 736 mmHg 86%
21:00 +18°C° 0 mm 3 mps 736 mmHg 86%
22:00 +17°C° 0 mm 3 mps 737 mmHg 87%
23:00 +16°C° 0 mm 3 mps 737 mmHg 87%

9 July, Thursday

Time Temperature Precipitation Wind Pressure Humidity
00:00 +14°C° 0 mm 3 mps 737 mmHg 88%
01:00 +14°C° 0 mm 3 mps 737 mmHg 89%
02:00 +13°C° 0 mm 3 mps 737 mmHg 89%
03:00 +13°C° 0 mm 3 mps 737 mmHg 90%
04:00 +13°C° 0 mm 3 mps 737 mmHg 91%
05:00 +12°C° 0 mm 3 mps 737 mmHg 92%
06:00 +14°C° 0 mm 3 mps 737 mmHg 86%
07:00 +17°C° 0 mm 4 mps 738 mmHg 80%
08:00 +17°C° 0 mm 5 mps 738 mmHg 74%
09:00 +19°C° 0 mm 5 mps 738 mmHg 70%
10:00 +20°C° 0 mm 5 mps 738 mmHg 67%
11:00 +21°C° 0 mm 5 mps 738 mmHg 63%
12:00 +22°C° 0 mm 5 mps 738 mmHg 61%
13:00 +23°C° 0 mm 4 mps 738 mmHg 60%
14:00 +23°C° 0 mm 4 mps 738 mmHg 59%
15:00 +23°C° 0.1 mm 4 mps 738 mmHg 61%
16:00 +22°C° 0.1 mm 5 mps 738 mmHg 64%
17:00 +22°C° 0.1 mm 5 mps 738 mmHg 66%
18:00 +21°C° 0 mm 4 mps 738 mmHg 72%
19:00 +19°C° 0 mm 4 mps 738 mmHg 79%
20:00 +18°C° 0 mm 3 mps 738 mmHg 85%
21:00 +17°C° 0 mm 3 mps 738 mmHg 87%
22:00 +16°C° 0 mm 3 mps 739 mmHg 89%
23:00 +14°C° 0 mm 3 mps 739 mmHg 91%

10 July, Friday

Time Temperature Precipitation Wind Pressure Humidity
00:00 +13°C° 0 mm 3 mps 739 mmHg 89%
01:00 +12°C° 0 mm 3 mps 739 mmHg 86%
02:00 +12°C° 0 mm 3 mps 739 mmHg 84%
03:00 +12°C° 0 mm 2 mps 740 mmHg 85%
04:00 +12°C° 0 mm 2 mps 740 mmHg 85%
05:00 +12°C° 0 mm 2 mps 740 mmHg 86%
06:00 +14°C° 0 mm 2 mps 740 mmHg 81%
07:00 +15°C° 0 mm 2 mps 740 mmHg 76%
08:00 +17°C° 0 mm 2 mps 741 mmHg 71%
09:00 +18°C° 0 mm 2 mps 741 mmHg 65%
10:00 +20°C° 0 mm 2 mps 741 mmHg 60%
11:00 +21°C° 0 mm 2 mps 741 mmHg 55%
12:00 +22°C° 0 mm 1 mps 741 mmHg 53%
13:00 +23°C° 0 mm 1 mps 740 mmHg 51%
14:00 +24°C° 0 mm 1 mps 740 mmHg 48%
15:00 +24°C° 0 mm 1 mps 740 mmHg 49%
16:00 +22°C° 0 mm 0 mps 740 mmHg 49%
17:00 +22°C° 0 mm 0 mps 740 mmHg 49%
18:00 +20°C° 0 mm 0 mps 740 mmHg 54%
19:00 +18°C° 0 mm 0 mps 740 mmHg 60%
20:00 +16°C° 0 mm 0 mps 740 mmHg 65%
21:00 +18°C° 0 mm 1 mps 740 mmHg 67%
22:00 +16°C° 0 mm 1 mps 740 mmHg 68%
23:00 +15°C° 0 mm 2 mps 740 mmHg 70%
Show more